Regional Weather Roundup
Issued by NWS

Home | Current Version | Previous Version | Text Only | Print | Product List | Glossary Off
Versions: 1 2 3 4 5 6 7 8 9 10 11 12 13 14 15 16 17 18 19 20 21 22 23 24 25 26 27 28 29 30 31 32 33 34 35 36 37 38 39 40 41 42 43 44 45 46 47 48 49 50

000
ASUS43 KFSD 281502
RWRSD

WEATHER ROUNDUP FOR SOUTH DAKOTA
NATIONAL WEATHER SERVICE SIOUX FALLS SD
1000 AM CDT FRI AUG 28 2015

NOTE: "FAIR" INDICATES FEW OR NO CLOUDS BELOW 12,000 FEET WITH NO
SIGNIFICANT WEATHER AND/OR OBSTRUCTIONS TO VISIBILITY.


SDZ001>005-009-010-012>017-281600-
NORTHWEST AND NORTH CENTRAL SOUTH DAKOTA

CITY           SKY/WX    TMP DP  RH WIND       PRES   REMARKS
BUFFALO          N/A     65  56  72 S3        29.95R
FAITH            N/A     63  61  93 SW7       29.99R
MOBRIDGE       CLOUDY    68  68 100 S5        29.93S FOG
$$

SDZ012>016-024>037-041>051-057-063-072>074-281600-
SOUTHWEST AND SOUTH CENTRAL SOUTH DAKOTA

CITY           SKY/WX    TMP DP  RH WIND       PRES   REMARKS
RAPID CTY ARPT SUNNY     68  59  73 W7        30.04S
PIERRE         CLOUDY    69  66  90 S5        29.95S
CUSTER         SUNNY     68  46  45 N3        30.19R
ELLSWORTH AFB  SUNNY     67  58  72 W6        30.03S
PHILIP         FOG       64  64 100 SW6       30.00R VSB 1/4
PINE RIDGE     MOSUNNY   65  55  70 SW5       30.06R
WINNER         CLOUDY    68  65  90 N8        29.97R
$$

SDZ004>011-016>023-039-040-281600-
NORTHEAST SOUTH DAKOTA

CITY           SKY/WX    TMP DP  RH WIND       PRES   REMARKS
ABERDEEN       PTSUNNY   69  65  86 S9        29.94S
WATERTOWN      CLOUDY    68  63  84 E7        29.96S
BROOKINGS      PTSUNNY   68  61  77 E12       29.97S
$$

SDZ017-020-022-023-036>040-048>070-281600-
SOUTHEAST SOUTH DAKOTA

CITY           SKY/WX    TMP DP  RH WIND       PRES   REMARKS
SIOUX FALLS    LGT RAIN  66  64  93 E14       29.93R FOG
HURON          PTSUNNY   70  65  84 E5        29.94R
CHAMBERLAIN    CLOUDY    66  65  96 NE3       29.96R
MITCHELL       CLOUDY    68  65  90 NE10      29.94S
YANKTON        CLOUDY    64  63  94 NE14      29.88R
$$

ABBREVIATIONS USED IN REMARKS
   TC - TEMPERATURE IN CELSIUS
  WCI - WIND CHILL INDEX
   HX - HEAT INDEX
  VSB - VISIBILITY




USA.gov is the U.S. government's official web portal to all federal, state and local government web resources and services.